Lid_Strength_Index
1 -0 -1 -1 -2 -1 -1 -1 -1 -1 -1 -1 -2 -1 -2 -2 -2 -2 -2 -2 -2 -2 -2 -2 -2 -2 -2 -2 -1 -1 -1 -1 -2 -2 -2 -2 -2 -2 -2 -2 -2 -1 -2
0 -0 -0 -1 -1 -1 -1 -1 -1 -1 -1 -1 -2 -2 -2 -2 -2 -2 -2 -2 -2 -2 -2 -3 -2 -2 -2 -1 -1 -1 -1 -1 -2 -2 -2 -2 -2 -2 -2 -2 -2 -1 -2
0 -0 -0 -1 -1 -1 -1 -1 -1 -1 -1 -1 -2 -2 -2 -2 -2 -2 -2 -2 -2 -2 -2 -2 -2 -2 -2 -2 -2 -1 -1 -1 -1 -2 -2 -1 -1 -2 -2 -2 -2 -2 -2
0 -0 -0 -0 -1 -1 -1 -1 -1 -1 -1 -2 -2 -2 -1 -2 -2 -2 -2 -2 -2 -2 -2 -2 -2 -2 -2 -2 -2 -1 -1 -1 -1 -1 -1 -1 -1 -2 -2 -2 -2 -2 -2
0 -0 -0 -0 -1 -1 -1 -1 -1 -1 -1 -1 -2 -2 -2 -2 -2 -2 -2 -2 -2 -2 -2 -2 -2 -2 -2 -2 -1 -1 -1 -1 -1 -1 -1 -1 -1 -1 -2 -2 -2 -2 -2
0 -0 0 -0 -1 -1 -1 -1 -1 -1 -1 -1 -2 -2 -2 -2 -2 -2 -2 -2 -2 -2 -2 -2 -2 -2 -1 -1 -1 -1 -1 -1 -1 -1 -1 -1 -1 -2 -2 -2 -2 -2 -2
0 -0 -0 -0 -0 -1 -1 -1 -1 -1 -1 -1 -1 -2 -2 -2 -2 -2 -2 -2 -2 -2 -2 -2 -2 -2 -1 -1 -1 -1 -1 -1 -1 -1 -1 -1 -1 -2 -2 -2 -2 -1 -1
1 0 -0 1 0 -0 -1 -1 -1 -1 -1 -1 -1 -2 -2 -2 -2 -2 -2 -2 -2 -2 -2 -2 -2 -1 -1 -1 -2 -1 -1 -1 -1 -1 -1 -1 -2 -2 -2 -2 -1 -1 -0
0 0 -0 -0 0 1 0 0 -0 -1 -1 -1 -1 -1 -1 -1 -2 -2 -1 -2 -2 -2 -2 -2 -2 -2 -1 -1 -1 -1 -1 -0 -1 -1 -1 -1 -2 -2 -2 -1 -0 -0 0
0 0 0 -0 -0 0 0 1 1 0 -0 -0 -0 -0 -0 -0 -1 -1 -1 -1 -2 -2 -2 -2 -2 -2 -1 -1 -1 -1 -0 0 -1 -1 -1 -1 -2 -2 -1 -1 -0 0 1
1 1 0 0 0 0 0 1 1 1 1 0 0 1 1 -0 0 0 -0 -1 -2 -2 -2 -2 -1 -1 -1 -0 -1 -0 0 -1 -1 -1 -1 -1 -2 -2 -2 -1 -0 0 1
2 1 1 0 0 0 0 0 -0 -0 -1 -1 -1 -1 -1 0 0 1 0 -0 -1 -1 -1 -1 -1 -1 0 -1 -1 0 -1 -0 -0 -1 -1 -1 -2 -2 -1 -1 -1 -0 0
7 3 1 1 0 1 1 1 0 0 -0 -0 -1 -1 -0 0 1 1 -0 -1 -1 1 -1 -1 -1 -1 -1 -1 -1 -0 -0 -0 -0 -0 -1 -1 -2 -2 -2 -1 -0 0 0
7 6 3 1 1 1 1 1 1 1 0 -0 -1 -0 -0 0 1 2 1 0 -1 -1 -1 -1 -1 -1 -0 -1 -0 0 1 0 0 0 0 1 -1 -2 -2 -1 -1 -0 1
7 6 5 1 1 1 1 2 1 1 1 -0 -0 -0 -0 -0 0 1 1 1 0 0 -0 1 0 -0 -0 0 1 1 1 1 1 1 1 3 1 -1 -2 -2 -1 -1 0
7 6 3 4 0 1 1 1 1 2 1 0 -0 0 -0 -0 0 0 0 1 1 0 -0 1 1 0 0 1 1 2 1 1 1 1 1 1 2 1 -1 -2 -2 -2 -1
7 6 4 4 0 1 1 2 2 2 2 1 0 0 0 0 0 0 -0 0 0 0 1 2 3 2 1 1 1 2 2 2 2 2 2 2 1 2 1 -1 -2 -2 -1
6 6 4 1 1 1 1 2 2 2 2 1 1 1 1 1 0 0 0 0 0 0 1 2 3 3 3 2 2 2 3 3 3 3 3 3 2 2 2 2 0 -1 -1
6 6 3 1 1 1 1 2 2 2 2 2 2 2 1 1 1 1 1 1 0 0 1 2 3 3 3 3 3 3 3 3 3 3 3 3 3 3 3 4 5 3 -0
5 3 1 1 1 1 1 1 1 2 3 2 2 2 2 1 1 1 1 1 0 0 1 3 3 4 3 3 4 5 6 4 4 4 3 4 4 4 5 6 5 5 6
5 2 2 2 1 1 2 2 2 3 3 2 2 2 1 1 1 1 1 1 1 0 1 2 3 4 5 5 5 7 7 6 5 5 4 4 5 5 6 6 7 7 7
6 2 2 2 2 1 1 2 2 2 2 2 2 2 2 2 2 2 1 1 1 1 1 2 4 6 6 7 6 8 7 5 7 6 5 6 5 6 7 8 8 8 8
7 2 2 2 2 1 1 1 2 2 2 3 3 3 2 2 2 2 2 2 1 1 2 3 3 5 7 7 8 6 10 8 9 9 8 8 7 8 8 9 9 10 10
8 2 2 2 2 1 1 2 2 3 4 3 3 3 3 2 2 2 2 2 2 2 2 3 4 4 5 7 8 7 9 7 9 9 11 11 10 11 10 11 11 11 11
8 2 2 2 2 1 1 1 2 3 2 3 3 3 3 3 3 2 2 2 3 3 3 4 4 5 5 4 7 9 8 10 12 12 9 11 13 12 11 11 11 11 11
7 2 2 2 2 1 2 2 2 2 3 4 4 4 4 3 3 3 2 2 2 3 4 4 5 5 5 5 6 9 9 11 11 11 13 11 12 12 12 12 12 12 12